START_TIME,STEP,MOV.,M34,t_acc.,L5,t_acc.,L18,t_acc.,L14,t_acc.
1979-08-05 09:00:23.300 ,0,0,0.,12.0,0.,12.0,0.,12.0,0.,12.0
1979-08-05 09:00:35.300 ,0,0,0.,12.0,0.,12.0,0.,12.0,0.,12.0
1979-08-05 09:00:47.300 ,0,1,0.,12.0,0.,12.0,0.,12.0,0.,12.0
1979-08-05 09:00:59.300 ,0,1,0.,12.0,0.,12.0,0.,12.0,0.,12.0
1979-08-05 09:01:11.300 ,0,0,0.,12.0,0.,12.0,0.,12.0,0.,12.0
1979-08-05 09:01:23.300 ,0,0,0.,12.0,0.,12.0,0.,12.0,0.,12.0
1979-08-05 09:01:35.300 ,1,1,0.,12.0,0.,12.0,1.,12.0,0.,12.0
1979-08-05 09:01:47.300 ,1,1,0.,12.0,0.,12.0,0.,12.0,0.,12.0
1979-08-05 09:01:59.300 ,1,0,0.,12.0,0.,12.0,0.,12.0,0.,12.0
1979-08-05 09:02:11.300 ,1,0,0.,12.0,0.,12.0,0.,12.0,0.,12.0
1979-08-05 09:02:23.300 ,2,1,0.,12.0,0.,12.0,0.,12.0,0.,12.0
1979-08-05 09:02:35.300 ,2,1,0.,12.0,0.,12.0,0.,12.0,0.,12.0
1979-08-05 09:02:47.300 ,2,0,0.,12.0,0.,12.0,0.,12.0,0.,12.0
1979-08-05 09:02:59.300 ,2,0,0.,12.0,0.,12.0,0.,12.0,0.,12.0
1979-08-05 09:03:11.300 ,3,1,0.,12.0,0.,12.0,0.,12.0,0.,12.0
1979-08-05 09:03:23.300 ,3,1,0.,12.0,0.,12.0,0.,12.0,0.,12.0
1979-08-05 09:03:35.300 ,3,0,0.,12.0,0.,12.0,0.,12.0,0.,12.0
1979-08-05 09:03:47.300 ,3,0,0.,12.0,0.,12.0,0.,12.0,0.,12.0
1979-08-05 09:03:59.300 ,4,1,0.,12.0,0.,12.0,0.,12.0,1.,12.0
1979-08-05 09:04:11.300 ,4,1,0.,12.0,0.,12.0,0.,12.0,0.,12.0
1979-08-05 09:04:23.300 ,4,0,0.,12.0,0.,12.0,0.,12.0,0.,12.0
1979-08-05 09:04:35.300 ,4,0,0.,12.0,0.,12.0,0.,12.0,0.,12.0
1979-08-05 09:04:47.300 ,5,1,0.,12.0,0.,12.0,0.,12.0,0.,12.0
1979-08-05 09:04:59.300 ,5,1,0.,12.0,0.,12.0,0.,12.0,0.,12.0
1979-08-05 09:05:11.300 ,5,0,0.,12.0,0.,12.0,0.,12.0,0.,12.0
1979-08-05 09:05:23.300 ,5,0,0.,12.0,0.,12.0,0.,12.0,0.,12.0
1979-08-05 09:05:35.300 ,6,1,0.,12.0,0.,12.0,0.,12.0,0.,12.0
1979-08-05 09:05:47.300 ,6,1,0.,12.0,0.,12.0,0.,12.0,0.,12.0
1979-08-05 09:05:59.300 ,6,0,0.,12.0,0.,12.0,0.,12.0,0.,12.0
1979-08-05 09:06:11.300 ,6,0,0.,12.0,0.,12.0,0.,12.0,0.,12.0
1979-08-05 09:06:23.300 ,7,0,,0,,0,,0,,0
1979-08-05 09:06:35.300 ,7,0,,0,,0,,0,,0
1979-08-05 09:06:47.300 ,7,0,0.,12.0,0.,12.0,0.,12.0,0.,12.0
1979-08-05 09:06:59.300 ,7,0,0.,12.0,0.,12.0,0.,12.0,0.,12.0
1979-08-05 09:07:11.300 ,4,1,0.,12.0,0.,12.0,0.,12.0,0.,12.0
1979-08-05 09:07:23.300 ,4,1,0.,12.0,0.,12.0,0.,12.0,0.,12.0
1979-08-05 09:07:35.300 ,0,1,0.,12.0,0.,12.0,0.,12.0,0.,12.0
1979-08-05 09:07:47.300 ,0,1,0.,12.0,0.,12.0,0.,12.0,0.,12.0
1979-08-05 09:07:59.300 ,3,1,0.,12.0,0.,12.0,0.,12.0,0.,12.0
1979-08-05 09:08:11.300 ,3,1,0.,12.0,0.,12.0,0.,12.0,0.,12.0
1979-08-05 09:08:23.300 ,7,1,0.,12.0,0.,12.0,0.,12.0,0.,12.0
1979-08-05 09:08:35.300 ,7,1,0.,12.0,0.,12.0,0.,12.0,0.,12.0
1979-08-05 09:08:47.300 ,4,1,0.,12.0,0.,12.0,0.,12.0,0.,12.0
1979-08-05 09:08:59.300 ,4,1,0.,12.0,0.,12.0,0.,12.0,0.,12.0
1979-08-05 09:09:11.300 ,0,1,0.,12.0,0.,12.0,0.,12.0,0.,12.0
1979-08-05 09:09:23.300 ,0,1,0.,12.0,0.,12.0,0.,12.0,0.,12.0
1979-08-05 09:09:35.300 ,3,1,0.,12.0,0.,12.0,0.,12.0,0.,12.0
1979-08-05 09:09:47.300 ,3,1,0.,12.0,0.,12.0,0.,12.0,0.,12.0
1979-08-05 09:09:59.300 ,7,1,0.,12.0,0.,12.0,0.,12.0,0.,12.0
1979-08-05 09:10:11.300 ,7,1,0.,12.0,0.,12.0,0.,12.0,0.,12.0
1979-08-05 09:10:23.300 ,4,1,0.,12.0,0.,12.0,0.,12.0,0.,12.0
1979-08-05 09:10:35.300 ,4,1,0.,12.0,0.,12.0,0.,12.0,0.,12.0
1979-08-05 09:10:47.300 ,0,1,0.,12.0,0.,12.0,0.,12.0,0.,12.0
1979-08-05 09:10:59.300 ,0,1,0.,12.0,0.,12.0,0.,12.0,0.,12.0
1979-08-05 09:11:11.300 ,3,1,0.,12.0,0.,12.0,0.,12.0,0.,12.0
1979-08-05 09:11:23.300 ,3,1,0.,12.0,0.,12.0,0.,12.0,0.,12.0
1979-08-05 09:11:35.300 ,7,1,0.,12.0,0.,12.0,0.,12.0,0.,12.0
1979-08-05 09:11:47.300 ,7,1,0.,12.0,0.,12.0,0.,12.0,0.,12.0
1979-08-05 09:11:59.300 ,4,1,0.,12.0,0.,12.0,0.,12.0,0.,12.0
1979-08-05 09:12:11.300 ,4,1,0.,12.0,0.,12.0,0.,12.0,0.,12.0
1979-08-05 09:12:23.300 ,0,1,0.,12.0,0.,12.0,0.,12.0,0.,12.0
1979-08-05 09:12:35.300 ,0,1,0.,12.0,0.,12.0,0.,12.0,0.,12.0
1979-08-05 09:12:47.300 ,3,1,0.,12.0,0.,12.0,0.,12.0,0.,12.0
1979-08-05 09:12:59.300 ,3,1,0.,12.0,0.,12.0,0.,12.0,0.,12.0
1979-08-05 09:13:11.300 ,7,1,0.,12.0,0.,12.0,0.,12.0,0.,12.0
1979-08-05 09:13:23.300 ,7,1,0.,12.0,0.,12.0,0.,12.0,0.,12.0
1979-08-05 09:13:35.300 ,4,1,0.,12.0,0.,12.0,0.,12.0,0.,12.0
1979-08-05 09:13:47.300 ,4,1,0.,12.0,0.,12.0,0.,12.0,0.,12.0
1979-08-05 09:13:59.300 ,0,1,0.,12.0,0.,12.0,0.,12.0,0.,12.0
1979-08-05 09:14:11.300 ,0,1,0.,12.0,0.,12.0,0.,12.0,0.,12.0
1979-08-05 09:14:23.300 ,3,1,0.,12.0,0.,12.0,0.,12.0,0.,12.0
1979-08-05 09:14:35.300 ,3,1,0.,12.0,0.,12.0,0.,12.0,0.,12.0
1979-08-05 09:14:47.300 ,7,1,0.,12.0,0.,12.0,0.,12.0,0.,12.0
1979-08-05 09:14:59.300 ,7,1,0.,12.0,0.,12.0,0.,12.0,0.,12.0
1979-08-05 09:15:11.300 ,4,1,0.,12.0,0.,12.0,0.,12.0,0.,12.0
1979-08-05 09:15:23.300 ,4,1,0.,12.0,0.,12.0,0.,12.0,0.,12.0
1979-08-05 09:15:35.300 ,0,1,0.,12.0,0.,12.0,0.,12.0,0.,12.0
1979-08-05 09:15:47.300 ,0,1,0.,12.0,0.,12.0,0.,12.0,0.,12.0
1979-08-05 09:15:59.300 ,3,1,0.,12.0,0.,12.0,0.,12.0,0.,12.0
1979-08-05 09:16:11.300 ,3,1,0.,12.0,0.,12.0,0.,12.0,0.,12.0
1979-08-05 09:16:23.300 ,7,1,0.,12.0,0.,12.0,0.,12.0,0.,12.0
1979-08-05 09:16:35.300 ,7,1,0.,12.0,0.,12.0,0.,12.0,0.,12.0
1979-08-05 09:16:47.300 ,4,1,0.,12.0,0.,12.0,0.,12.0,0.,12.0
1979-08-05 09:16:59.300 ,4,1,0.,12.0,0.,12.0,0.,12.0,0.,12.0
1979-08-05 09:17:11.300 ,0,1,0.,12.0,0.,12.0,0.,12.0,0.,12.0
1979-08-05 09:17:23.300 ,0,1,0.,12.0,0.,12.0,0.,12.0,0.,12.0
1979-08-05 09:17:35.300 ,0,0,0.,12.0,0.,12.0,0.,12.0,0.,12.0
1979-08-05 09:17:47.300 ,0,0,0.,12.0,0.,12.0,0.,12.0,0.,12.0
1979-08-05 09:17:59.300 ,0,0,0.,12.0,0.,12.0,0.,12.0,0.,12.0
1979-08-05 09:18:11.300 ,0,0,0.,12.0,0.,12.0,0.,12.0,0.,12.0
1979-08-05 09:18:23.300 ,5,1,0.,12.0,0.,12.0,0.,12.0,0.,12.0
1979-08-05 09:18:35.300 ,5,1,0.,12.0,0.,12.0,0.,12.0,0.,12.0
1979-08-05 09:18:47.300 ,5,0,0.,12.0,0.,12.0,0.,12.0,0.,12.0
1979-08-05 09:18:59.300 ,5,0,0.,12.0,0.,12.0,0.,12.0,0.,12.0
1979-08-05 09:19:11.300 ,4,1,0.,12.0,0.,12.0,0.,12.0,0.,12.0
1979-08-05 09:19:23.300 ,4,1,0.,12.0,0.,12.0,0.,12.0,0.,12.0
1979-08-05 09:19:35.300 ,4,0,0.,12.0,0.,12.0,0.,12.0,0.,12.0
1979-08-05 09:19:47.300 ,4,0,0.,12.0,0.,12.0,0.,12.0,0.,12.0
1979-08-05 09:19:59.300 ,3,1,0.,12.0,0.,12.0,0.,12.0,0.,12.0
1979-08-05 09:20:11.300 ,3,1,0.,12.0,0.,12.0,0.,12.0,0.,12.0
1979-08-05 09:20:23.300 ,3,0,0.,12.0,0.,12.0,0.,12.0,0.,12.0
1979-08-05 09:20:35.300 ,3,0,0.,12.0,0.,12.0,0.,12.0,0.,12.0
1979-08-05 09:20:47.300 ,2,1,0.,12.0,0.,12.0,0.,12.0,0.,12.0
1979-08-05 09:20:59.300 ,2,1,0.,12.0,0.,12.0,0.,12.0,0.,12.0
1979-08-05 09:21:11.300 ,2,0,0.,12.0,0.,12.0,0.,12.0,0.,12.0
1979-08-05 09:21:23.300 ,2,0,0.,12.0,0.,12.0,0.,12.0,0.,12.0
1979-08-05 09:21:35.300 ,1,1,0.,12.0,0.,12.0,0.,12.0,0.,12.0
1979-08-05 09:21:47.300 ,1,1,0.,12.0,0.,12.0,0.,12.0,0.,12.0
1979-08-05 09:21:59.300 ,1,0,0.,12.0,0.,12.0,0.,12.0,0.,12.0
1979-08-05 09:22:11.300 ,1,0,0.,12.0,0.,12.0,0.,12.0,0.,12.0
1979-08-05 09:22:23.300 ,0,1,0.,12.0,0.,12.0,0.,12.0,0.,12.0
1979-08-05 09:22:35.300 ,0,1,0.,12.0,0.,12.0,0.,12.0,0.,12.0
1979-08-05 09:22:47.300 ,0,0,0.,12.0,0.,12.0,0.,12.0,0.,12.0
1979-08-05 09:22:59.300 ,0,0,0.,12.0,0.,12.0,0.,12.0,0.,12.0
1979-08-05 09:23:11.300 ,0,1,0.,12.0,0.,12.0,0.,12.0,0.,12.0
1979-08-05 09:23:23.300 ,0,1,0.,12.0,0.,12.0,0.,12.0,0.,12.0
1979-08-05 09:23:35.300 ,0,0,0.,12.0,0.,12.0,0.,12.0,0.,12.0
1979-08-05 09:23:47.300 ,0,0,0.,12.0,0.,12.0,0.,12.0,0.,12.0
1979-08-05 09:23:59.300 ,1,1,0.,12.0,0.,12.0,0.,12.0,0.,12.0
1979-08-05 09:24:11.300 ,1,1,0.,12.0,0.,12.0,0.,12.0,0.,12.0
1979-08-05 09:24:23.300 ,1,0,0.,12.0,0.,12.0,0.,12.0,0.,12.0
1979-08-05 09:24:35.300 ,1,0,0.,12.0,0.,12.0,0.,12.0,0.,12.0
1979-08-05 09:24:47.300 ,2,1,0.,12.0,0.,12.0,0.,12.0,0.,12.0
1979-08-05 09:24:59.300 ,2,1,0.,12.0,0.,12.0,0.,12.0,0.,12.0
1979-08-05 09:25:11.300 ,2,0,0.,12.0,0.,12.0,0.,12.0,0.,12.0
1979-08-05 09:25:23.300 ,2,0,0.,12.0,0.,12.0,0.,12.0,0.,12.0
1979-08-05 09:25:35.300 ,3,1,0.,12.0,0.,12.0,0.,12.0,0.,12.0
1979-08-05 09:25:47.300 ,3,1,0.,12.0,0.,12.0,0.,12.0,0.,12.0
1979-08-05 09:25:59.300 ,3,0,0.,12.0,0.,12.0,0.,12.0,0.,12.0
1979-08-05 09:26:11.300 ,3,0,0.,12.0,0.,12.0,0.,12.0,0.,12.0
1979-08-05 09:26:23.300 ,4,1,0.,12.0,0.,12.0,0.,12.0,0.,12.0
1979-08-05 09:26:35.300 ,4,1,0.,12.0,0.,12.0,0.,12.0,0.,12.0
1979-08-05 09:26:47.300 ,4,0,0.,12.0,0.,12.0,0.,12.0,0.,12.0
1979-08-05 09:26:59.300 ,4,0,0.,12.0,0.,12.0,0.,12.0,0.,12.0
1979-08-05 09:27:11.300 ,5,1,0.,12.0,0.,12.0,0.,12.0,0.,12.0
1979-08-05 09:27:23.300 ,5,1,0.,12.0,0.,12.0,0.,12.0,0.,12.0
1979-08-05 09:27:35.300 ,5,0,0.,12.0,0.,12.0,0.,12.0,0.,12.0
1979-08-05 09:27:47.300 ,5,0,0.,12.0,0.,12.0,0.,12.0,0.,12.0
1979-08-05 09:27:59.300 ,6,1,0.,12.0,0.,12.0,0.,12.0,0.,12.0
1979-08-05 09:28:11.300 ,6,1,0.,12.0,0.,12.0,0.,12.0,0.,12.0
1979-08-05 09:28:23.300 ,6,0,0.,12.0,0.,12.0,0.,12.0,0.,12.0
1979-08-05 09:28:35.300 ,6,0,0.,12.0,0.,12.0,0.,12.0,0.,12.0
1979-08-05 09:28:47.300 ,7,1,0.,12.0,0.,12.0,0.,12.0,0.,12.0
1979-08-05 09:28:59.300 ,7,1,0.,12.0,0.,12.0,0.,12.0,0.,12.0
1979-08-05 09:29:11.300 ,7,0,0.,12.0,0.,12.0,0.,12.0,0.,12.0
1979-08-05 09:29:23.300 ,7,0,0.,12.0,0.,12.0,0.,12.0,0.,12.0
1979-08-05 09:29:35.300 ,7,1,0.,12.0,0.,12.0,0.,12.0,0.,12.0
1979-08-05 09:29:47.300 ,7,1,0.,12.0,0.,12.0,0.,12.0,0.,12.0
1979-08-05 09:29:59.300 ,7,0,0.,12.0,0.,12.0,0.,12.0,0.,12.0
1979-08-05 09:30:11.300 ,7,0,0.,12.0,0.,12.0,0.,12.0,0.,12.0
1979-08-05 09:30:23.300 ,6,1,0.,12.0,0.,12.0,0.,12.0,0.,12.0
1979-08-05 09:30:35.300 ,6,1,0.,12.0,0.,12.0,0.,12.0,0.,12.0
1979-08-05 09:30:47.300 ,6,0,0.,12.0,0.,12.0,0.,12.0,0.,12.0
1979-08-05 09:30:59.300 ,6,0,0.,12.0,0.,12.0,0.,12.0,0.,12.0
1979-08-05 09:31:11.300 ,5,1,0.,12.0,0.,12.0,0.,12.0,0.,12.0
1979-08-05 09:31:23.300 ,5,1,0.,12.0,0.,12.0,0.,12.0,0.,12.0
1979-08-05 09:31:35.300 ,5,0,0.,12.0,0.,12.0,0.,12.0,0.,12.0
1979-08-05 09:31:47.300 ,5,0,0.,12.0,0.,12.0,0.,12.0,0.,12.0
1979-08-05 09:31:59.300 ,4,1,0.,12.0,0.,12.0,0.,12.0,0.,12.0
1979-08-05 09:32:11.300 ,4,1,0.,12.0,0.,12.0,0.,12.0,0.,12.0
1979-08-05 09:32:23.300 ,4,0,0.,12.0,0.,12.0,0.,12.0,0.,12.0
1979-08-05 09:32:35.300 ,4,0,0.,12.0,0.,12.0,0.,12.0,0.,12.0
1979-08-05 09:32:47.300 ,3,1,0.,12.0,0.,12.0,0.,12.0,0.,12.0
1979-08-05 09:32:59.300 ,3,1,0.,12.0,0.,12.0,0.,12.0,0.,12.0
1979-08-05 09:33:11.300 ,3,0,0.,12.0,0.,12.0,0.,12.0,0.,12.0
1979-08-05 09:33:23.300 ,3,0,0.,12.0,0.,12.0,0.,12.0,0.,12.0
1979-08-05 09:33:35.300 ,2,1,0.,12.0,0.,12.0,0.,12.0,0.,12.0
1979-08-05 09:33:47.300 ,2,1,0.,12.0,0.,12.0,0.,12.0,0.,12.0
1979-08-05 09:33:59.300 ,2,0,0.,12.0,0.,12.0,0.,12.0,0.,12.0
1979-08-05 09:34:11.300 ,2,0,0.,12.0,0.,12.0,0.,12.0,0.,12.0
1979-08-05 09:34:23.300 ,1,1,0.,12.0,0.,12.0,0.,12.0,0.,12.0
1979-08-05 09:34:35.300 ,1,1,0.,12.0,0.,12.0,0.,12.0,0.,12.0
1979-08-05 09:34:47.300 ,1,0,0.,12.0,0.,12.0,0.,12.0,0.,12.0
1979-08-05 09:34:59.300 ,1,0,0.,12.0,0.,12.0,0.,12.0,0.,12.0
1979-08-05 09:35:11.300 ,0,1,0.,12.0,0.,12.0,0.,12.0,0.,12.0
1979-08-05 09:35:23.300 ,0,1,0.,12.0,0.,12.0,0.,12.0,0.,12.0
1979-08-05 09:35:35.300 ,0,0,0.,12.0,0.,12.0,0.,12.0,0.,12.0
1979-08-05 09:35:47.300 ,0,0,0.,12.0,0.,12.0,0.,12.0,0.,12.0
1979-08-05 09:35:59.300 ,0,1,0.,12.0,0.,12.0,0.,12.0,0.,12.0
1979-08-05 09:36:11.300 ,0,1,0.,12.0,0.,12.0,0.,12.0,0.,12.0
1979-08-05 09:36:23.300 ,0,0,0.,12.0,0.,12.0,0.,12.0,0.,12.0
1979-08-05 09:36:35.300 ,0,0,0.,12.0,0.,12.0,0.,12.0,0.,12.0
1979-08-05 09:36:47.300 ,1,1,0.,12.0,0.,12.0,0.,12.0,0.,12.0
1979-08-05 09:36:59.300 ,1,1,0.,12.0,0.,12.0,0.,12.0,0.,12.0
1979-08-05 09:37:11.300 ,1,0,0.,12.0,0.,12.0,0.,12.0,0.,12.0
1979-08-05 09:37:23.300 ,1,0,0.,12.0,0.,12.0,0.,12.0,0.,12.0
1979-08-05 09:37:35.300 ,2,1,0.,12.0,0.,12.0,0.,12.0,0.,12.0
1979-08-05 09:37:47.300 ,2,1,0.,12.0,0.,12.0,0.,12.0,0.,12.0
1979-08-05 09:37:59.300 ,2,0,0.,12.0,0.,12.0,0.,12.0,0.,12.0
1979-08-05 09:38:11.300 ,2,0,0.,12.0,0.,12.0,0.,12.0,0.,12.0
1979-08-05 09:38:23.300 ,3,1,0.,12.0,0.,12.0,0.,12.0,0.,12.0
1979-08-05 09:38:35.300 ,3,1,0.,12.0,0.,12.0,0.,12.0,0.,12.0
1979-08-05 09:38:47.300 ,3,0,0.,12.0,0.,12.0,0.,12.0,0.,12.0
1979-08-05 09:38:59.300 ,3,0,0.,12.0,0.,12.0,0.,12.0,0.,12.0
1979-08-05 09:39:11.300 ,4,1,0.,12.0,0.,12.0,0.,12.0,0.,12.0
1979-08-05 09:39:23.300 ,4,1,0.,12.0,0.,12.0,0.,12.0,0.,12.0
1979-08-05 09:39:35.300 ,4,0,0.,12.0,0.,12.0,0.,12.0,0.,12.0
1979-08-05 09:39:47.300 ,4,0,0.,12.0,0.,12.0,0.,12.0,0.,12.0
1979-08-05 09:39:59.300 ,5,1,0.,12.0,0.,12.0,0.,12.0,0.,12.0
1979-08-05 09:40:11.300 ,5,1,0.,12.0,0.,12.0,0.,12.0,0.,12.0
1979-08-05 09:40:23.300 ,5,0,0.,12.0,0.,12.0,0.,12.0,0.,12.0
1979-08-05 09:40:35.300 ,5,0,0.,12.0,0.,12.0,0.,12.0,0.,12.0
1979-08-05 09:40:47.300 ,6,1,0.,12.0,0.,12.0,0.,12.0,0.,12.0
1979-08-05 09:40:59.300 ,6,1,0.,12.0,0.,12.0,0.,12.0,0.,12.0
1979-08-05 09:41:11.300 ,6,0,0.,12.0,0.,12.0,0.,12.0,0.,12.0
1979-08-05 09:41:23.300 ,6,0,0.,12.0,0.,12.0,0.,12.0,0.,12.0
1979-08-05 09:41:35.300 ,7,1,0.,12.0,0.,12.0,0.,12.0,0.,12.0
1979-08-05 09:41:47.300 ,7,1,0.,12.0,0.,12.0,0.,12.0,0.,12.0
1979-08-05 09:41:59.300 ,7,0,0.,12.0,0.,12.0,0.,12.0,0.,12.0
1979-08-05 09:42:11.300 ,7,0,0.,12.0,0.,12.0,0.,12.0,0.,12.0
1979-08-05 09:42:23.300 ,7,1,0.,12.0,0.,12.0,0.,12.0,0.,12.0
1979-08-05 09:42:35.300 ,7,1,0.,12.0,0.,12.0,0.,12.0,0.,12.0
1979-08-05 09:42:47.300 ,7,0,0.,12.0,0.,12.0,0.,12.0,0.,12.0
1979-08-05 09:42:59.300 ,7,0,0.,12.0,0.,12.0,0.,12.0,0.,12.0
1979-08-05 09:43:11.300 ,6,1,0.,12.0,0.,12.0,0.,12.0,0.,12.0
1979-08-05 09:43:23.300 ,6,1,0.,12.0,0.,12.0,0.,12.0,0.,12.0
1979-08-05 09:43:35.300 ,6,0,0.,12.0,0.,12.0,0.,12.0,0.,12.0
1979-08-05 09:43:47.300 ,6,0,0.,12.0,0.,12.0,0.,12.0,0.,12.0
1979-08-05 09:43:59.300 ,5,1,0.,12.0,0.,12.0,0.,12.0,0.,12.0
1979-08-05 09:44:11.300 ,5,1,0.,12.0,0.,12.0,0.,12.0,0.,12.0
1979-08-05 09:44:23.300 ,5,0,0.,12.0,0.,12.0,0.,12.0,0.,12.0
1979-08-05 09:44:35.300 ,5,0,0.,12.0,0.,12.0,0.,12.0,0.,12.0
1979-08-05 09:44:47.300 ,4,1,0.,12.0,0.,12.0,0.,12.0,0.,12.0
1979-08-05 09:44:59.300 ,4,1,0.,12.0,0.,12.0,0.,12.0,0.,12.0
1979-08-05 09:45:11.300 ,4,0,0.,12.0,0.,12.0,0.,12.0,0.,12.0
1979-08-05 09:45:23.300 ,4,0,0.,12.0,0.,12.0,0.,12.0,0.,12.0
1979-08-05 09:45:35.300 ,0,0,0.,12.0,0.,12.0,0.,12.0,0.,12.0
1979-08-05 09:45:47.300 ,0,0,0.,12.0,0.,12.0,0.,12.0,0.,12.0
1979-08-05 09:45:59.300 ,0,0,,0,,0,,0,,0
1979-08-05 09:46:11.300 ,0,0,0.,12.0,0.,12.0,0.,12.0,0.,12.0
1979-08-05 09:46:23.300 ,2,1,0.,12.0,0.,12.0,0.,12.0,0.,12.0
1979-08-05 09:46:35.300 ,2,1,0.,12.0,0.,12.0,0.,12.0,0.,12.0
1979-08-05 09:46:47.300 ,2,0,0.,12.0,0.,12.0,0.,12.0,0.,12.0
1979-08-05 09:46:59.300 ,2,0,0.,12.0,0.,12.0,0.,12.0,0.,12.0
1979-08-05 09:47:11.300 ,1,1,0.,12.0,0.,12.0,0.,12.0,0.,12.0
1979-08-05 09:47:23.300 ,1,1,0.,12.0,0.,12.0,0.,12.0,0.,12.0
1979-08-05 09:47:35.300 ,1,0,0.,12.0,0.,12.0,0.,12.0,0.,12.0
1979-08-05 09:47:47.300 ,1,0,0.,12.0,0.,12.0,0.,12.0,0.,12.0
1979-08-05 09:47:59.300 ,0,1,0.,12.0,0.,12.0,0.,12.0,0.,12.0
1979-08-05 09:48:11.300 ,0,1,0.,12.0,0.,12.0,0.,12.0,0.,12.0
1979-08-05 09:48:23.300 ,0,0,0.,12.0,0.,12.0,0.,12.0,0.,12.0
1979-08-05 09:48:35.300 ,0,0,0.,12.0,0.,12.0,0.,12.0,0.,12.0
1979-08-05 09:48:47.300 ,0,1,0.,12.0,0.,12.0,0.,12.0,0.,12.0
1979-08-05 09:48:59.300 ,0,1,0.,12.0,0.,12.0,0.,12.0,0.,12.0
1979-08-05 09:49:11.300 ,0,0,0.,12.0,0.,12.0,0.,12.0,0.,12.0
1979-08-05 09:49:23.300 ,0,0,0.,12.0,0.,12.0,0.,12.0,0.,12.0
1979-08-05 09:49:35.300 ,1,1,0.,12.0,0.,12.0,0.,12.0,0.,12.0
1979-08-05 09:49:47.300 ,1,1,0.,12.0,0.,12.0,0.,12.0,0.,12.0
1979-08-05 09:49:59.300 ,1,0,0.,12.0,0.,12.0,0.,12.0,0.,12.0
1979-08-05 09:50:11.300 ,1,0,0.,12.0,0.,12.0,0.,12.0,0.,12.0
1979-08-05 09:50:23.300 ,2,1,0.,12.0,0.,12.0,0.,12.0,0.,12.0
1979-08-05 09:50:35.300 ,2,1,0.,12.0,0.,12.0,0.,12.0,0.,12.0
1979-08-05 09:50:47.300 ,2,0,0.,12.0,0.,12.0,0.,12.0,0.,12.0
1979-08-05 09:50:59.300 ,2,0,0.,12.0,0.,12.0,0.,12.0,0.,12.0
1979-08-05 09:51:11.300 ,3,1,0.,12.0,0.,12.0,0.,12.0,1.,12.0
1979-08-05 09:51:23.300 ,3,1,0.,12.0,0.,12.0,0.,12.0,0.,12.0
1979-08-05 09:51:35.300 ,3,0,0.,12.0,0.,12.0,0.,12.0,0.,12.0
1979-08-05 09:51:47.300 ,3,0,0.,12.0,0.,12.0,0.,12.0,0.,12.0
1979-08-05 09:51:59.300 ,4,1,0.,12.0,0.,12.0,0.,12.0,0.,12.0
1979-08-05 09:52:11.300 ,4,1,0.,12.0,0.,12.0,0.,12.0,0.,12.0
1979-08-05 09:52:23.300 ,4,0,0.,12.0,0.,12.0,0.,12.0,0.,12.0
1979-08-05 09:52:35.300 ,4,0,0.,12.0,0.,12.0,0.,12.0,0.,12.0
1979-08-05 09:52:47.300 ,5,1,0.,12.0,0.,12.0,0.,12.0,0.,12.0
1979-08-05 09:52:59.300 ,5,1,0.,12.0,0.,12.0,0.,12.0,0.,12.0
1979-08-05 09:53:11.300 ,5,0,0.,12.0,0.,12.0,0.,12.0,0.,12.0
1979-08-05 09:53:23.300 ,5,0,0.,12.0,0.,12.0,0.,12.0,0.,12.0
1979-08-05 09:53:35.300 ,6,1,0.,12.0,0.,12.0,0.,12.0,0.,12.0
1979-08-05 09:53:47.300 ,6,1,0.,12.0,0.,12.0,0.,12.0,0.,12.0
1979-08-05 09:53:59.300 ,6,0,0.,12.0,0.,12.0,0.,12.0,0.,12.0
1979-08-05 09:54:11.300 ,6,0,0.,12.0,0.,12.0,0.,12.0,0.,12.0
1979-08-05 09:54:23.300 ,7,0,0.,12.0,0.,12.0,0.,12.0,0.,12.0
1979-08-05 09:54:35.300 ,7,0,0.,12.0,0.,12.0,0.,12.0,0.,12.0
1979-08-05 09:54:47.300 ,7,0,0.,12.0,0.,12.0,0.,12.0,0.,12.0
1979-08-05 09:54:59.300 ,7,0,0.,12.0,0.,12.0,0.,12.0,0.,12.0
1979-08-05 09:55:11.300 ,4,1,0.,12.0,0.,12.0,0.,12.0,0.,12.0
1979-08-05 09:55:23.300 ,4,1,0.,12.0,0.,12.0,0.,12.0,0.,12.0
1979-08-05 09:55:35.300 ,0,1,0.,12.0,0.,12.0,0.,12.0,0.,12.0
1979-08-05 09:55:47.300 ,0,1,0.,12.0,0.,12.0,0.,12.0,0.,12.0
1979-08-05 09:55:59.300 ,3,1,0.,12.0,0.,12.0,0.,12.0,0.,12.0
1979-08-05 09:56:11.300 ,3,1,0.,12.0,0.,12.0,0.,12.0,0.,12.0
1979-08-05 09:56:23.300 ,7,1,0.,12.0,0.,12.0,0.,12.0,0.,12.0
1979-08-05 09:56:35.300 ,7,1,0.,12.0,0.,12.0,0.,12.0,0.,12.0
1979-08-05 09:56:47.300 ,4,1,0.,12.0,0.,12.0,0.,12.0,0.,12.0
1979-08-05 09:56:59.300 ,4,1,0.,12.0,0.,12.0,0.,12.0,0.,12.0
1979-08-05 09:57:11.300 ,0,1,0.,12.0,0.,12.0,0.,12.0,0.,12.0
1979-08-05 09:57:23.300 ,0,1,0.,12.0,0.,12.0,0.,12.0,0.,12.0
1979-08-05 09:57:35.300 ,3,1,0.,12.0,0.,12.0,0.,12.0,0.,12.0
1979-08-05 09:57:47.300 ,3,1,0.,12.0,0.,12.0,0.,12.0,0.,12.0
1979-08-05 09:57:59.300 ,7,1,0.,12.0,0.,12.0,0.,12.0,0.,12.0
1979-08-05 09:58:11.300 ,7,1,0.,12.0,0.,12.0,0.,12.0,0.,12.0
1979-08-05 09:58:23.300 ,4,1,0.,12.0,0.,12.0,0.,12.0,0.,12.0
1979-08-05 09:58:35.300 ,4,1,0.,12.0,0.,12.0,0.,12.0,0.,12.0
1979-08-05 09:58:47.300 ,0,1,0.,12.0,0.,12.0,0.,12.0,0.,12.0
1979-08-05 09:58:59.300 ,0,1,0.,12.0,0.,12.0,0.,12.0,0.,12.0
1979-08-05 09:59:11.300 ,3,1,0.,12.0,0.,12.0,0.,12.0,0.,12.0
1979-08-05 09:59:23.300 ,3,1,0.,12.0,0.,12.0,0.,12.0,0.,12.0
1979-08-05 09:59:35.300 ,7,1,0.,12.0,0.,12.0,0.,12.0,0.,12.0
1979-08-05 09:59:47.300 ,7,1,0.,12.0,0.,12.0,0.,12.0,0.,12.0
1979-08-05 09:59:59.300 ,4,1,0.,12.0,0.,12.0,0.,12.0,0.,12.0
1979-08-05 10:00:11.300 ,4,1,0.,12.0,0.,12.0,0.,12.0,0.,12.0
1979-08-05 10:00:23.300 ,0,1,0.,12.0,0.,12.0,0.,12.0,0.,12.0
1979-08-05 10:00:35.300 ,0,1,0.,12.0,0.,12.0,0.,12.0,0.,12.0
1979-08-05 10:00:47.300 ,3,1,0.,12.0,0.,12.0,0.,12.0,0.,12.0
1979-08-05 10:00:59.300 ,3,1,0.,12.0,0.,12.0,0.,12.0,0.,12.0
1979-08-05 10:01:11.300 ,7,1,0.,12.0,0.,12.0,0.,12.0,0.,12.0
1979-08-05 10:01:23.300 ,7,1,0.,12.0,0.,12.0,0.,12.0,0.,12.0
1979-08-05 10:01:35.300 ,4,1,0.,12.0,0.,12.0,0.,12.0,0.,12.0
1979-08-05 10:01:47.300 ,4,1,0.,12.0,0.,12.0,0.,12.0,0.,12.0
1979-08-05 10:01:59.300 ,0,1,0.,12.0,0.,12.0,0.,12.0,0.,12.0
1979-08-05 10:02:11.300 ,0,1,0.,12.0,0.,12.0,0.,12.0,0.,12.0
1979-08-05 10:02:23.300 ,3,1,0.,12.0,0.,12.0,0.,12.0,0.,12.0
1979-08-05 10:02:35.300 ,3,1,0.,12.0,0.,12.0,0.,12.0,0.,12.0
1979-08-05 10:02:47.300 ,7,1,0.,12.0,0.,12.0,0.,12.0,0.,12.0
1979-08-05 10:02:59.300 ,7,1,0.,12.0,0.,12.0,0.,12.0,0.,12.0
1979-08-05 10:03:11.300 ,4,1,0.,12.0,0.,12.0,0.,12.0,1.,12.0
1979-08-05 10:03:23.300 ,4,1,0.,12.0,0.,12.0,0.,12.0,0.,12.0
1979-08-05 10:03:35.300 ,0,1,0.,12.0,0.,12.0,0.,12.0,0.,12.0
1979-08-05 10:03:47.300 ,0,1,0.,12.0,0.,12.0,0.,12.0,0.,12.0
1979-08-05 10:03:59.300 ,3,1,0.,12.0,0.,12.0,0.,12.0,0.,12.0
1979-08-05 10:04:11.300 ,3,1,0.,12.0,0.,12.0,0.,12.0,0.,12.0
1979-08-05 10:04:23.300 ,7,1,0.,12.0,0.,12.0,0.,12.0,0.,12.0
1979-08-05 10:04:35.300 ,7,1,0.,12.0,0.,12.0,0.,12.0,0.,12.0
1979-08-05 10:04:47.300 ,4,1,0.,12.0,0.,12.0,0.,12.0,0.,12.0
1979-08-05 10:04:59.300 ,4,1,0.,12.0,0.,12.0,0.,12.0,0.,12.0
1979-08-05 10:05:11.300 ,0,1,0.,12.0,0.,12.0,0.,12.0,0.,12.0
1979-08-05 10:05:23.300 ,0,1,0.,12.0,0.,12.0,0.,12.0,0.,12.0
1979-08-05 10:05:35.300 ,0,0,0.,12.0,0.,12.0,0.,12.0,0.,12.0
1979-08-05 10:05:47.300 ,0,0,0.,12.0,0.,12.0,0.,12.0,0.,12.0
1979-08-05 10:05:59.300 ,0,0,0.,12.0,0.,12.0,0.,12.0,0.,12.0
1979-08-05 10:06:11.300 ,0,0,0.,12.0,0.,12.0,0.,12.0,0.,12.0
1979-08-05 10:06:23.300 ,5,1,0.,12.0,0.,12.0,0.,12.0,0.,12.0
1979-08-05 10:06:35.300 ,5,1,0.,12.0,0.,12.0,0.,12.0,0.,12.0
1979-08-05 10:06:47.300 ,5,0,0.,12.0,0.,12.0,0.,12.0,0.,12.0
1979-08-05 10:06:59.300 ,5,0,0.,12.0,0.,12.0,0.,12.0,0.,12.0
1979-08-05 10:07:11.300 ,4,1,0.,12.0,0.,12.0,0.,12.0,0.,12.0
1979-08-05 10:07:23.300 ,4,1,0.,12.0,0.,12.0,0.,12.0,0.,12.0
1979-08-05 10:07:35.300 ,4,0,0.,12.0,0.,12.0,0.,12.0,0.,12.0
1979-08-05 10:07:47.300 ,4,0,0.,12.0,0.,12.0,0.,12.0,1.,12.0
1979-08-05 10:07:59.300 ,3,1,0.,12.0,0.,12.0,0.,12.0,0.,12.0
1979-08-05 10:08:11.300 ,3,1,0.,12.0,0.,12.0,0.,12.0,0.,12.0
1979-08-05 10:08:23.300 ,3,0,0.,12.0,0.,12.0,0.,12.0,0.,12.0
1979-08-05 10:08:35.300 ,3,0,0.,12.0,0.,12.0,0.,12.0,0.,12.0
1979-08-05 10:08:47.300 ,2,1,0.,12.0,0.,12.0,0.,12.0,0.,12.0
1979-08-05 10:08:59.300 ,2,1,0.,12.0,0.,12.0,0.,12.0,0.,12.0
1979-08-05 10:09:11.300 ,2,0,0.,12.0,0.,12.0,0.,12.0,0.,12.0
1979-08-05 10:09:23.300 ,2,0,0.,12.0,0.,12.0,0.,12.0,0.,12.0
1979-08-05 10:09:35.300 ,1,1,0.,12.0,0.,12.0,0.,12.0,0.,12.0
1979-08-05 10:09:47.300 ,1,1,0.,12.0,0.,12.0,0.,12.0,0.,12.0
1979-08-05 10:09:59.300 ,1,0,0.,12.0,0.,12.0,0.,12.0,0.,12.0
1979-08-05 10:10:11.300 ,1,0,0.,12.0,0.,12.0,0.,12.0,0.,12.0
1979-08-05 10:10:23.300 ,0,0,0.,12.0,0.,12.0,0.,12.0,0.,12.0
1979-08-05 10:10:35.300 ,0,0,0.,12.0,0.,12.0,0.,12.0,0.,12.0
1979-08-05 10:10:47.300 ,0,0,0.,12.0,0.,12.0,0.,12.0,0.,12.0
1979-08-05 10:10:59.300 ,0,0,0.,12.0,0.,12.0,0.,12.0,0.,12.0
1979-08-05 10:11:11.300 ,0,1,0.,12.0,0.,12.0,0.,12.0,0.,12.0
1979-08-05 10:11:23.300 ,0,1,0.,12.0,0.,12.0,0.,12.0,0.,12.0
1979-08-05 10:11:35.300 ,0,0,0.,12.0,0.,12.0,0.,12.0,0.,12.0
1979-08-05 10:11:47.300 ,0,0,0.,12.0,0.,12.0,0.,12.0,0.,12.0
1979-08-05 10:11:59.300 ,1,1,0.,12.0,0.,12.0,0.,12.0,0.,12.0
1979-08-05 10:12:11.300 ,1,1,0.,12.0,0.,12.0,0.,12.0,0.,12.0
1979-08-05 10:12:23.300 ,1,0,0.,12.0,0.,12.0,0.,12.0,0.,12.0
1979-08-05 10:12:35.300 ,1,0,0.,12.0,0.,12.0,0.,12.0,0.,12.0
1979-08-05 10:12:47.300 ,2,1,0.,12.0,0.,12.0,0.,12.0,0.,12.0
1979-08-05 10:12:59.300 ,2,1,0.,12.0,0.,12.0,0.,12.0,0.,12.0
1979-08-05 10:13:11.300 ,2,0,0.,12.0,0.,12.0,0.,12.0,0.,12.0
1979-08-05 10:13:23.300 ,2,0,0.,12.0,0.,12.0,0.,12.0,0.,12.0
1979-08-05 10:13:35.300 ,3,1,0.,12.0,0.,12.0,0.,12.0,0.,12.0
1979-08-05 10:13:47.300 ,3,1,0.,12.0,0.,12.0,0.,12.0,0.,12.0
1979-08-05 10:13:59.300 ,3,0,0.,12.0,0.,12.0,0.,12.0,0.,12.0
1979-08-05 10:14:11.300 ,3,0,0.,12.0,0.,12.0,0.,12.0,0.,12.0
1979-08-05 10:14:23.300 ,4,1,0.,12.0,0.,12.0,0.,12.0,0.,12.0
1979-08-05 10:14:35.300 ,4,1,0.,12.0,0.,12.0,0.,12.0,0.,12.0
1979-08-05 10:14:47.300 ,4,0,0.,12.0,0.,12.0,0.,12.0,0.,12.0
1979-08-05 10:14:59.300 ,4,0,0.,12.0,0.,12.0,0.,12.0,0.,12.0
1979-08-05 10:15:11.300 ,5,1,0.,12.0,0.,12.0,0.,12.0,0.,12.0
1979-08-05 10:15:23.300 ,5,1,0.,12.0,0.,12.0,0.,12.0,0.,12.0
1979-08-05 10:15:35.300 ,5,0,0.,12.0,0.,12.0,0.,12.0,0.,12.0
1979-08-05 10:15:47.300 ,5,0,0.,12.0,0.,12.0,0.,12.0,0.,12.0
1979-08-05 10:15:59.300 ,6,1,0.,12.0,0.,12.0,0.,12.0,0.,12.0
1979-08-05 10:16:11.300 ,6,1,0.,12.0,0.,12.0,0.,12.0,0.,12.0
1979-08-05 10:16:23.300 ,6,0,0.,12.0,0.,12.0,0.,12.0,0.,12.0
1979-08-05 10:16:35.300 ,6,0,0.,12.0,0.,12.0,0.,12.0,0.,12.0
1979-08-05 10:16:47.300 ,7,1,0.,12.0,0.,12.0,0.,12.0,0.,12.0
1979-08-05 10:16:59.300 ,7,1,0.,12.0,0.,12.0,0.,12.0,0.,12.0
1979-08-05 10:17:11.300 ,7,0,0.,12.0,0.,12.0,0.,12.0,0.,12.0
1979-08-05 10:17:23.300 ,7,0,0.,12.0,0.,12.0,0.,12.0,0.,12.0
1979-08-05 10:17:35.300 ,7,1,0.,12.0,0.,12.0,0.,12.0,0.,12.0